Location: Hamilton
(37.7830°S, 175.2830°E)
Time: 18:10:27
(UTC+13:00)

ISS - Pass Details

Date: 01 February 2019
Orbit: 411 x 421 km, 51.6° (Epoch: 23 October)

Event Time Altitude Azimuth Distance (km) Brightness Sun altitude
Exits shadow 03:59:42 33° 119° (ESE) 734 -2.1 -24.9°
Drops below altitude 10° 04:01:44 10° 126° (SE) 1,515 0.1 -24.6°
Enters shadow 04:56:54 -71° 307° (NW) 12,479 3.7 -16.9°
